Home   Weather   Passau   Past weeks

Flag for Germany Past Weather in Passau, Bavaria, Germany — Yesterday and Last 2 Weeks

Now
21 °F

Cold.


Feels Like: 21 °F
Forecast: 9 / 25 °F
Wind: 2 mph from East

Location: Rohrbach

Current Time: Jan 18, 2017 at 2:58:35 am

Latest Report: Jan 18, 2017 at 2:00 am


Visibility: N/A

Pressure: 30.65 "Hg

Humidity: 76%

Dew Point: 15 °F

Location of PassauLocation

Past Weather in Passau — Graph

°F

Passau Temperature Yesterday

Maximum temperature yesterday: 25 °F (at 12:00 am)
Minimum temperature yesterday: 21 °F (at 8:00 am)
Average temperature yesterday: 22 °F

High & Low Weather Summary for the Past Weeks

 TemperatureHumidityPressure
High37 °F (Jan 13, 7:00 am)100% (Jan 13, 1:00 am)30.78 "Hg (Jan 13, 1:00 am)
Low-2 °F (Jan 7, 8:00 am)63% (Jan 13, 1:00 pm)29.44 "Hg (Jan 13, 6:00 am)
Average23 °F85%30.19 "Hg
* Reported Jan 3 1:00 am — Jan 18 1:00 am, Passau, Weather by CustomWeather, © 2017

Note: Actual official high and low records may vary slightly from our data, if they occured in-between our weather recording intervals... More about our weather records

Advertising

Passau Weather History for the Previous 24 Hours

Scroll right to see more
 ConditionsComfort  
Time TempWeatherWind HumidityBarometerVisibility
1:00 am
Wed, Jan 18
21 °FCold.2 mph79%30.64 "HgN/A
12:00 am21 °FCold.2 mph79%30.64 "HgN/A
11:00 pm
Tue, Jan 17
21 °FCold.No wind78%30.63 "HgN/A
10:00 pm21 °FCold.1 mph78%30.63 "HgN/A
9:00 pm22 °FCold.No wind80%30.62 "HgN/A
8:00 pm22 °FCold.No wind79%30.60 "HgN/A
7:00 pm22 °FCold.1 mph79%30.59 "HgN/A
6:00 pm22 °FCold.1 mph79%30.56 "HgN/A
5:00 pm22 °FFog.2 mph82%30.55 "HgN/A
4:00 pm22 °FCold.2 mph79%30.55 "HgN/A
3:00 pm22 °FLight mixture of precip. Cloudy.2 mph78%30.53 "HgN/A
2:00 pm22 °FLight mixture of precip. Cloudy.2 mph77%30.53 "HgN/A
1:00 pm22 °FCold.2 mph78%30.53 "HgN/A
12:00 pm23 °FLight mixture of precip. Cloudy.2 mph77%30.52 "HgN/A
11:00 am22 °FFog.1 mph80%30.53 "HgN/A
10:00 am22 °FPassing clouds.No wind80%30.51 "Hg11 mi
9:00 am21 °FCold.1 mph83%30.50 "HgN/A
8:00 am21 °FLight mixture of precip. Cloudy.1 mph83%30.48 "HgN/A
7:00 am21 °FCold.6 mph83%30.45 "HgN/A
6:00 am22 °FCold.5 mph84%30.42 "HgN/A
5:00 am23 °FCold.5 mph85%30.40 "HgN/A
4:00 am23 °FCold.3 mph85%30.38 "HgN/A
3:00 am23 °FCold.3 mph85%30.38 "HgN/A
2:00 am24 °FLight mixture of precip. Overcast.1 mph84%30.37 "HgN/A
Weather by CustomWeather, © 2017

See weather overviewHow to use our weather pages